SCP
0 0 0 0 0 0 0 0 0 0 0 0 0 0 0 0 0 0 0 0 0 0 0 0 0 0 0 0 0 0 0 0 0 0 0 0 0 0 0 0 0 0 0
0 0 0 0 0 0 0 0 0 0 0 0 0 0 0 0 0 0 0 0 0 0 0 0 0 0 0 0 0 0 0 0 0 0 0 0 0 0 0 0 0 0 0
0 0 0 0 0 0 0 0 0 0 0 0 0 0 0 0 0 0 0 0 0 0 0 0 0 0 0 0 0 0 0 0 0 0 0 0 0 0 0 0 0 0 0
0 0 0 0 0 0 0 0 0 0 0 0 0 0 0 0 0 0 0 0 0 0 0 0 0 0 0 0 0 0 0 0 0 0 0 0 0 0 0 0 0 0 0
0 0 0 0 0 0 0 0 0 0 0 0 0 0 0 0 0 0 0 0 0 0 0 0 0 0 0 0 0 0 0 0 0 0 0 0 0 0 0 0 0 0 0
0 0 0 0 0 0 0 0 0 0 0 0 0 0 0 0 0 0 0 0 0 0 0 0 0 0 0 0 0 0 0 0 0 0 0 0 0 0 -0 -0 -0 0 0
0 0 0 0 0 0 0 0 0 0 0 0 0 0 0 0 0 0 0 0 0 0 0 0 0 0 0 0 0 0 0 0 0 0 0 0 -0 -0 -0 -0 -0 0 0
0 0 0 0 0 0 0 0 0 0 0 0 0 0 0 0 0 0 0 0 0 0 0 0 0 0 0 0 0 0 0 0 0 0 0 -0 -0 -0 -0 -0 -0 0 0
0 0 0 0 0 0 0 0 0 0 0 0 0 0 0 0 0 0 0 0 0 0 0 0 0 0 0 0 0 0 0 0 0 0 0 -0 -0 -0 -0 0 0 0 0
0 0 0 0 0 0 0 0 0 0 0 0 0 0 0 0 0 0 0 0 0 0 0 0 0 0 0 0 0 0 0 0 0 0 0 -0 0 0 0 0 0 0 0
0 0 0 0 0 0 0 0 0 0 0 0 0 0 0 0 0 0 0 0 0 0 0 0 0 0 0 0 0 0 0 0 0 0 0 -0 0 0 0 0 0 0 0
0 0 0 0 0 0 0 0 0 0 0 0 0 0 0 0 0 0 0 0 0 0 0 0 0 0 0 0 0 0 0 0 0 0 0 0 0 0 0 0 0 0 0
0 0 0 0 0 0 0 0 0 0 0 0 0 0 0 0 0 0 0 0 0 0 0 0 0 0 0 0 0 0 0 0 0 0 0 0 0 0 0 0 0 0 0
0 0 0 0 0 0 0 0 0 0 0 0 0 0 0 0 0 0 0 0 0 0 0 0 0 0 0 0 0 0 0 0 0 0 0 0 0 0 0 0 0 0 0
0 0 0 0 0 0 0 0 0 0 0 0 0 0 0 0 0 0 0 0 0 0 0 0 0 0 0 0 0 0 0 0 0 0 0 0 0 0 0 0 0 0 0
0 0 0 0 0 0 0 0 0 0 0 0 0 0 0 0 0 0 0 0 0 0 0 0 0 0 0 0 0 0 0 0 0 0 0 0 0 0 0 0 0 0 0
0 0 0 0 0 0 0 0 0 0 0 0 0 0 0 0 0 0 0 0 0 0 0 0 0 0 0 0 0 0 0 0 0 0 0 0 0 0 0 0 0 0 0
0 0 0 0 0 0 0 0 0 0 0 0 0 0 0 0 0 0 0 0 0 0 0 0 0 0 0 0 0 0 0 0 0 0 0 0 0 0 0 0 0 0 0
0 0 0 0 0 0 0 0 0 0 0 0 0 0 0 0 0 0 0 0 0 0 0 0 0 0 0 0 0 0 0 0 0 0 0 0 0 0 0 0 0 0 0
0 0 0 0 0 0 0 0 0 0 0 0 0 0 0 0 0 0 0 0 0 0 0 0 0 0 0 0 0 0 0 0 0 0 0 0 0 0 0 0 0 0 0
0 0 0 0 0 0 0 0 0 0 0 0 0 0 0 0 0 0 0 0 0 0 0 0 0 0 0 0 0 0 0 0 0 0 0 0 0 0 0 0 0 0 0
0 0 0 0 0 0 0 0 0 0 0 0 0 0 0 0 0 0 0 0 0 0 0 0 0 0 0 0 0 0 0 0 0 0 0 0 0 0 0 0 0 0 0
0 0 0 0 0 0 0 0 0 0 0 0 0 0 0 0 0 0 0 0 0 0 0 0 0 0 0 0 0 0 0 0 0 0 0 0 0 0 0 0 0 0 0
0 0 0 0 0 0 0 0 0 0 0 0 0 0 0 0 0 0 0 0 0 0 0 0 0 0 0 0 0 0 0 0 0 0 0 0 0 0 0 0 0 0 0
0 0 0 0 0 0 0 0 0 0 0 0 0 0 0 0 0 0 0 0 0 0 0 0 0 0 0 0 0 0 0 0 0 0 0 0 0 0 0 0 0 0 0
0 0 0 0 0 0 0 0 0 0 0 0 0 0 0 0 0 0 0 0 0 0 0 0 0 0 0 0 0 0 0 0 0 0 0 0 0 0 0 0 0 0 0
Wind_Speed_500mb
29 28 29 28 28 28 27 24 22 19 13 16 16 16 12 16 15 17 14 10 9 7 9 11 8 10 11 9 9 11 13 14 15 16 18 12 11 9 10 11 11 8 5
35 35 34 35 32 31 30 26 22 21 18 18 20 19 15 24 19 16 12 8 7 6 5 6 7 9 10 12 12 12 13 16 17 15 13 17 20 20 21 18 15 13 12
40 39 39 38 35 33 31 30 29 26 24 20 24 24 23 27 20 19 17 13 12 12 11 11 10 9 9 11 14 17 19 20 19 20 20 21 24 25 23 23 22 21 20
45 45 44 43 39 38 38 37 36 35 34 32 30 28 26 30 27 25 21 20 21 20 20 18 17 16 16 17 19 24 27 28 29 25 25 24 26 27 27 27 28 26 26
50 50 49 46 43 44 45 43 42 41 39 35 34 31 31 38 32 31 27 23 25 27 25 25 25 26 26 27 28 31 33 33 35 36 33 32 30 30 30 32 29 29 27
55 55 55 54 50 51 50 49 47 44 43 38 35 37 38 43 44 42 37 34 30 30 30 29 28 29 29 30 33 37 37 40 38 44 47 44 37 37 35 36 35 35 32
62 60 60 61 59 60 57 53 50 49 49 45 43 40 43 48 53 53 45 41 33 29 31 31 32 33 33 32 34 36 40 43 39 41 50 55 53 48 40 40 42 38 36
67 66 65 66 67 65 63 61 58 57 55 52 53 42 40 42 51 42 38 32 27 29 33 34 34 34 34 31 32 35 36 36 41 39 45 51 58 54 55 44 43 43 40
73 68 68 68 70 70 70 67 65 64 63 58 59 53 21 28 20 25 28 29 29 34 33 36 39 40 38 38 36 36 35 35 40 41 43 48 50 54 56 55 48 47 45
81 78 74 73 72 71 74 72 71 71 68 68 62 67 67 61 29 21 18 24 32 37 41 44 47 43 44 41 37 39 37 40 43 45 44 49 48 49 51 60 55 51 51
85 84 82 80 80 79 79 76 75 76 76 75 75 73 71 71 68 64 63 55 54 53 47 45 49 49 49 42 40 40 41 45 48 48 50 50 51 50 48 53 61 56 57
83 84 86 85 84 86 87 85 81 80 79 78 80 77 78 76 75 74 74 75 68 63 52 50 55 55 50 46 45 41 41 44 49 52 51 51 51 52 51 56 61 58 59
89 87 84 85 86 87 88 89 91 90 87 87 84 85 78 81 77 73 65 69 70 66 62 57 52 55 48 46 39 38 42 42 46 48 55 55 50 50 50 53 53 53 57
92 89 86 83 83 83 84 87 91 94 94 93 91 89 87 84 81 77 79 74 70 71 73 68 59 54 48 41 41 39 41 46 47 53 57 47 47 46 47 47 46 49 53
97 93 91 89 84 81 80 81 85 90 95 96 96 94 93 89 86 82 81 79 81 59 54 64 58 52 49 41 43 43 45 49 49 55 52 45 45 44 43 44 46 42 42
98 94 92 90 86 85 82 80 81 82 89 92 94 94 93 89 86 83 78 75 82 87 74 64 60 56 53 49 46 48 50 46 48 52 50 45 44 41 40 41 41 41 41
98 96 93 92 93 92 88 85 84 83 87 88 90 91 90 85 83 82 76 79 86 82 83 80 74 63 51 53 51 47 50 50 50 47 39 39 36 31 29 31 35 38 42
92 94 93 93 95 95 93 92 89 87 90 91 91 91 90 85 80 79 80 82 81 78 78 84 76 61 57 65 57 56 52 48 35 34 32 35 28 24 24 26 30 34 37
87 90 90 95 97 99 98 97 93 90 92 92 93 91 85 83 79 85 85 79 75 71 67 73 65 68 62 57 54 50 49 34 34 31 27 27 25 22 22 22 27 30 33
78 84 87 89 91 94 97 98 97 94 95 94 92 91 90 86 85 82 80 75 73 66 65 76 59 66 58 53 49 47 42 37 31 23 23 19 20 14 14 21 25 30 33
67 74 79 84 89 91 96 95 96 96 95 92 92 91 89 85 77 76 73 71 65 65 70 68 64 61 59 55 51 43 37 34 27 23 18 15 16 18 18 21 24 27 29
64 69 75 81 85 92 97 96 95 95 94 93 94 90 83 80 75 70 65 66 64 70 68 63 66 65 59 56 45 40 35 31 20 20 19 15 17 15 16 16 20 25 26
61 69 77 82 88 90 94 94 93 92 93 92 91 85 78 76 73 71 70 68 65 64 70 67 68 65 58 50 45 42 38 32 24 26 19 14 13 12 14 19 16 14 16
63 68 70 78 83 85 87 85 84 85 87 83 81 78 77 76 76 75 71 70 70 71 68 66 61 58 52 45 41 37 33 28 27 22 19 17 15 11 11 10 9 12 23
69 68 71 72 81 86 83 81 77 80 83 85 84 80 77 75 73 73 73 71 66 65 64 57 54 51 43 41 40 39 36 30 27 25 21 20 15 9 8 9 5 18 21
77 71 75 75 74 80 79 81 79 81 84 83 79 80 79 76 73 73 74 70 67 66 57 50 48 45 43 43 42 40 31 26 27 26 23 17 11 4 6 16 17 20 19
Wind_Direction_500mb
233 233 229 229 225 226 229 228 230 233 242 240 229 232 256 269 295 317 313 310 321 314 306 319 299 305 326 332 324 326 327 323 317 313 296 291 270 279 262 270 284 274 278
236 234 234 230 229 229 231 237 241 245 246 247 236 246 256 269 287 296 300 309 299 304 310 290 296 305 314 328 343 338 326 315 309 299 268 278 276 283 290 276 271 269 271
240 239 239 239 236 233 234 235 235 239 245 241 243 244 249 263 282 283 279 282 280 279 286 286 287 291 297 301 308 315 318 313 299 294 288 280 276 281 275 268 271 267 267
242 241 241 242 241 239 237 237 237 242 247 245 245 247 259 260 274 286 281 274 272 270 272 272 270 272 277 288 293 295 299 300 297 289 280 277 272 268 272 266 271 266 267
242 242 244 245 242 240 239 239 241 244 246 246 246 248 249 256 265 275 283 275 271 269 265 264 266 269 275 283 286 287 287 283 271 280 295 298 282 267 267 263 263 260 262
242 242 244 245 243 242 240 241 242 244 245 243 247 251 252 259 262 269 272 272 268 266 266 263 267 274 280 285 288 285 287 278 267 269 277 282 277 278 262 253 254 264 264
247 243 243 244 242 243 245 245 246 245 244 241 240 250 256 258 264 268 267 264 255 251 256 259 268 277 286 292 290 299 289 283 276 265 263 271 264 275 269 256 256 255 265
250 246 245 245 244 243 244 244 244 245 246 240 237 252 263 269 270 266 256 245 247 243 257 262 268 276 286 294 297 295 293 292 288 269 260 269 263 262 278 260 258 257 258
249 250 247 247 246 245 245 247 249 247 248 244 239 237 232 243 268 264 255 253 249 254 264 270 275 282 285 291 291 294 297 292 284 283 270 263 260 265 266 262 265 254 255
252 254 252 248 248 246 246 248 249 250 249 248 244 240 248 255 262 287 282 245 243 249 257 268 272 277 280 284 289 291 294 290 288 284 276 272 269 261 257 259 265 255 259
251 252 252 253 250 248 247 248 248 247 248 248 249 249 250 254 256 253 273 273 271 275 274 278 283 279 281 281 284 290 289 289 285 282 280 278 273 266 262 258 256 258 263
255 251 250 251 252 251 250 249 251 251 250 251 252 252 251 251 252 250 247 267 277 288 282 280 278 282 287 287 289 287 284 284 289 288 283 278 274 269 262 260 258 254 258
255 256 252 251 250 251 252 252 251 251 251 251 252 254 256 257 258 263 263 268 270 279 270 278 285 278 289 284 276 278 287 284 288 286 287 284 273 273 269 270 266 255 256
263 263 261 258 258 255 255 255 253 253 252 253 255 255 257 260 260 261 262 265 264 269 271 279 283 286 280 277 279 274 282 283 292 295 292 282 275 270 270 270 269 265 263
264 263 263 263 261 259 257 255 255 254 254 254 254 255 257 259 262 262 262 261 262 260 263 275 277 282 272 279 285 278 289 288 288 297 288 284 280 274 270 271 270 267 267
265 264 263 263 263 261 260 257 255 255 254 254 255 256 257 258 259 262 262 261 258 257 260 272 276 283 271 288 288 280 275 276 285 288 283 279 275 271 267 265 265 265 266
263 262 263 262 262 261 260 257 255 254 253 254 254 255 256 257 258 260 261 259 256 256 260 265 273 281 264 281 283 274 274 278 282 283 284 279 276 276 275 271 270 271 271
262 261 260 255 256 256 256 255 254 252 251 251 251 252 254 255 256 260 257 256 256 255 259 263 270 277 266 277 275 273 273 281 276 285 279 280 282 284 282 278 276 274 276
263 262 260 257 255 252 254 257 256 255 254 253 252 253 256 254 256 255 252 255 254 257 254 260 261 263 263 263 268 272 281 272 284 274 269 274 279 281 280 279 278 280 282
262 260 258 256 255 256 254 252 252 252 251 252 251 252 253 253 255 255 253 255 256 254 252 258 260 254 262 261 264 273 272 274 273 267 268 273 277 275 284 282 281 280 281
267 263 260 256 254 252 253 252 252 253 253 253 253 253 253 254 256 256 255 253 258 252 260 247 249 253 261 260 266 266 263 262 257 256 257 258 259 279 282 282 281 288 295
276 266 261 256 254 252 252 252 252 252 254 252 253 255 256 254 253 253 257 254 249 261 249 256 255 256 259 262 255 251 247 244 244 251 241 247 260 267 275 287 301 300 299
281 274 261 257 256 254 253 253 253 255 254 254 253 255 254 254 254 253 255 250 250 248 251 249 255 257 258 249 248 242 239 234 230 249 248 252 246 266 279 293 284 286 305
286 281 274 259 258 257 255 254 253 252 253 254 253 253 253 252 251 251 249 245 250 246 246 250 248 250 249 243 235 236 233 229 246 245 239 249 249 259 275 256 248 313 315
288 281 278 272 259 258 256 255 251 248 248 247 250 250 248 249 245 246 245 242 242 243 246 242 235 235 235 232 234 232 227 237 230 239 234 233 239 237 234 220 245 321 320
289 283 277 273 266 260 256 252 249 247 247 247 246 245 244 241 242 239 239 242 238 240 238 237 228 223 226 228 232 231 228 218 222 230 229 234 244 304 185 191 307 322 329
Wind_Speed_850mb
29 28 29 28 28 28 27 24 22 19 13 16 16 16 12 16 15 17 14 10 9 7 9 11 8 10 11 9 9 11 13 14 15 16 18 12 11 9 10 11 11 8 5
35 35 34 35 32 31 30 26 22 21 18 18 20 19 15 24 19 16 12 8 7 6 5 6 7 9 10 12 12 12 13 16 17 15 13 17 20 20 21 18 15 13 12
40 39 39 38 35 33 31 30 29 26 24 20 24 24 23 27 20 19 17 13 12 12 11 11 10 9 9 11 14 17 19 20 19 20 20 21 24 25 23 23 22 21 20
45 45 44 43 39 38 38 37 36 35 34 32 30 28 26 30 27 25 21 20 21 20 20 18 17 16 16 17 19 24 27 28 29 25 25 24 26 27 27 27 28 26 26
50 50 49 46 43 44 45 43 42 41 39 35 34 31 31 38 32 31 27 23 25 27 25 25 25 26 26 27 28 31 33 33 35 36 33 32 30 30 30 32 29 29 27
55 55 55 54 50 51 50 49 47 44 43 38 35 37 38 43 44 42 37 34 30 30 30 29 28 29 29 30 33 37 37 40 38 44 47 44 37 37 35 36 35 35 32
62 60 60 61 59 60 57 53 50 49 49 45 43 40 43 48 53 53 45 41 33 29 31 31 32 33 33 32 34 36 40 43 39 41 50 55 53 48 40 40 42 38 36
67 66 65 66 67 65 63 61 58 57 55 52 53 42 40 42 51 42 38 32 27 29 33 34 34 34 34 31 32 35 36 36 41 39 45 51 58 54 55 44 43 43 40
73 68 68 68 70 70 70 67 65 64 63 58 59 53 21 28 20 25 28 29 29 34 33 36 39 40 38 38 36 36 35 35 40 41 43 48 50 54 56 55 48 47 45
81 78 74 73 72 71 74 72 71 71 68 68 62 67 67 61 29 21 18 24 32 37 41 44 47 43 44 41 37 39 37 40 43 45 44 49 48 49 51 60 55 51 51
85 84 82 80 80 79 79 76 75 76 76 75 75 73 71 71 68 64 63 55 54 53 47 45 49 49 49 42 40 40 41 45 48 48 50 50 51 50 48 53 61 56 57
83 84 86 85 84 86 87 85 81 80 79 78 80 77 78 76 75 74 74 75 68 63 52 50 55 55 50 46 45 41 41 44 49 52 51 51 51 52 51 56 61 58 59
89 87 84 85 86 87 88 89 91 90 87 87 84 85 78 81 77 73 65 69 70 66 62 57 52 55 48 46 39 38 42 42 46 48 55 55 50 50 50 53 53 53 57
92 89 86 83 83 83 84 87 91 94 94 93 91 89 87 84 81 77 79 74 70 71 73 68 59 54 48 41 41 39 41 46 47 53 57 47 47 46 47 47 46 49 53
97 93 91 89 84 81 80 81 85 90 95 96 96 94 93 89 86 82 81 79 81 59 54 64 58 52 49 41 43 43 45 49 49 55 52 45 45 44 43 44 46 42 42
98 94 92 90 86 85 82 80 81 82 89 92 94 94 93 89 86 83 78 75 82 87 74 64 60 56 53 49 46 48 50 46 48 52 50 45 44 41 40 41 41 41 41
98 96 93 92 93 92 88 85 84 83 87 88 90 91 90 85 83 82 76 79 86 82 83 80 74 63 51 53 51 47 50 50 50 47 39 39 36 31 29 31 35 38 42
92 94 93 93 95 95 93 92 89 87 90 91 91 91 90 85 80 79 80 82 81 78 78 84 76 61 57 65 57 56 52 48 35 34 32 35 28 24 24 26 30 34 37
87 90 90 95 97 99 98 97 93 90 92 92 93 91 85 83 79 85 85 79 75 71 67 73 65 68 62 57 54 50 49 34 34 31 27 27 25 22 22 22 27 30 33
78 84 87 89 91 94 97 98 97 94 95 94 92 91 90 86 85 82 80 75 73 66 65 76 59 66 58 53 49 47 42 37 31 23 23 19 20 14 14 21 25 30 33
67 74 79 84 89 91 96 95 96 96 95 92 92 91 89 85 77 76 73 71 65 65 70 68 64 61 59 55 51 43 37 34 27 23 18 15 16 18 18 21 24 27 29
64 69 75 81 85 92 97 96 95 95 94 93 94 90 83 80 75 70 65 66 64 70 68 63 66 65 59 56 45 40 35 31 20 20 19 15 17 15 16 16 20 25 26
61 69 77 82 88 90 94 94 93 92 93 92 91 85 78 76 73 71 70 68 65 64 70 67 68 65 58 50 45 42 38 32 24 26 19 14 13 12 14 19 16 14 16
63 68 70 78 83 85 87 85 84 85 87 83 81 78 77 76 76 75 71 70 70 71 68 66 61 58 52 45 41 37 33 28 27 22 19 17 15 11 11 10 9 12 23
69 68 71 72 81 86 83 81 77 80 83 85 84 80 77 75 73 73 73 71 66 65 64 57 54 51 43 41 40 39 36 30 27 25 21 20 15 9 8 9 5 18 21
77 71 75 75 74 80 79 81 79 81 84 83 79 80 79 76 73 73 74 70 67 66 57 50 48 45 43 43 42 40 31 26 27 26 23 17 11 4 6 16 17 20 19
Wind_Direction_850mb
233 233 229 229 225 226 229 228 230 233 242 240 229 232 256 269 295 317 313 310 321 314 306 319 299 305 326 332 324 326 327 323 317 313 296 291 270 279 262 270 284 274 278
236 234 234 230 229 229 231 237 241 245 246 247 236 246 256 269 287 296 300 309 299 304 310 290 296 305 314 328 343 338 326 315 309 299 268 278 276 283 290 276 271 269 271
240 239 239 239 236 233 234 235 235 239 245 241 243 244 249 263 282 283 279 282 280 279 286 286 287 291 297 301 308 315 318 313 299 294 288 280 276 281 275 268 271 267 267
242 241 241 242 241 239 237 237 237 242 247 245 245 247 259 260 274 286 281 274 272 270 272 272 270 272 277 288 293 295 299 300 297 289 280 277 272 268 272 266 271 266 267
242 242 244 245 242 240 239 239 241 244 246 246 246 248 249 256 265 275 283 275 271 269 265 264 266 269 275 283 286 287 287 283 271 280 295 298 282 267 267 263 263 260 262
242 242 244 245 243 242 240 241 242 244 245 243 247 251 252 259 262 269 272 272 268 266 266 263 267 274 280 285 288 285 287 278 267 269 277 282 277 278 262 253 254 264 264
247 243 243 244 242 243 245 245 246 245 244 241 240 250 256 258 264 268 267 264 255 251 256 259 268 277 286 292 290 299 289 283 276 265 263 271 264 275 269 256 256 255 265
250 246 245 245 244 243 244 244 244 245 246 240 237 252 263 269 270 266 256 245 247 243 257 262 268 276 286 294 297 295 293 292 288 269 260 269 263 262 278 260 258 257 258
249 250 247 247 246 245 245 247 249 247 248 244 239 237 232 243 268 264 255 253 249 254 264 270 275 282 285 291 291 294 297 292 284 283 270 263 260 265 266 262 265 254 255
252 254 252 248 248 246 246 248 249 250 249 248 244 240 248 255 262 287 282 245 243 249 257 268 272 277 280 284 289 291 294 290 288 284 276 272 269 261 257 259 265 255 259
251 252 252 253 250 248 247 248 248 247 248 248 249 249 250 254 256 253 273 273 271 275 274 278 283 279 281 281 284 290 289 289 285 282 280 278 273 266 262 258 256 258 263
255 251 250 251 252 251 250 249 251 251 250 251 252 252 251 251 252 250 247 267 277 288 282 280 278 282 287 287 289 287 284 284 289 288 283 278 274 269 262 260 258 254 258
255 256 252 251 250 251 252 252 251 251 251 251 252 254 256 257 258 263 263 268 270 279 270 278 285 278 289 284 276 278 287 284 288 286 287 284 273 273 269 270 266 255 256
263 263 261 258 258 255 255 255 253 253 252 253 255 255 257 260 260 261 262 265 264 269 271 279 283 286 280 277 279 274 282 283 292 295 292 282 275 270 270 270 269 265 263
264 263 263 263 261 259 257 255 255 254 254 254 254 255 257 259 262 262 262 261 262 260 263 275 277 282 272 279 285 278 289 288 288 297 288 284 280 274 270 271 270 267 267
265 264 263 263 263 261 260 257 255 255 254 254 255 256 257 258 259 262 262 261 258 257 260 272 276 283 271 288 288 280 275 276 285 288 283 279 275 271 267 265 265 265 266
263 262 263 262 262 261 260 257 255 254 253 254 254 255 256 257 258 260 261 259 256 256 260 265 273 281 264 281 283 274 274 278 282 283 284 279 276 276 275 271 270 271 271
262 261 260 255 256 256 256 255 254 252 251 251 251 252 254 255 256 260 257 256 256 255 259 263 270 277 266 277 275 273 273 281 276 285 279 280 282 284 282 278 276 274 276
263 262 260 257 255 252 254 257 256 255 254 253 252 253 256 254 256 255 252 255 254 257 254 260 261 263 263 263 268 272 281 272 284 274 269 274 279 281 280 279 278 280 282
262 260 258 256 255 256 254 252 252 252 251 252 251 252 253 253 255 255 253 255 256 254 252 258 260 254 262 261 264 273 272 274 273 267 268 273 277 275 284 282 281 280 281
267 263 260 256 254 252 253 252 252 253 253 253 253 253 253 254 256 256 255 253 258 252 260 247 249 253 261 260 266 266 263 262 257 256 257 258 259 279 282 282 281 288 295
276 266 261 256 254 252 252 252 252 252 254 252 253 255 256 254 253 253 257 254 249 261 249 256 255 256 259 262 255 251 247 244 244 251 241 247 260 267 275 287 301 300 299
281 274 261 257 256 254 253 253 253 255 254 254 253 255 254 254 254 253 255 250 250 248 251 249 255 257 258 249 248 242 239 234 230 249 248 252 246 266 279 293 284 286 305
286 281 274 259 258 257 255 254 253 252 253 254 253 253 253 252 251 251 249 245 250 246 246 250 248 250 249 243 235 236 233 229 246 245 239 249 249 259 275 256 248 313 315
288 281 278 272 259 258 256 255 251 248 248 247 250 250 248 249 245 246 245 242 242 243 246 242 235 235 235 232 234 232 227 237 230 239 234 233 239 237 234 220 245 321 320
289 283 277 273 266 260 256 252 249 247 247 247 246 245 244 241 242 239 239 242 238 240 238 237 228 223 226 228 232 231 228 218 222 230 229 234 244 304 185 191 307 322 329